GFSSGP_850_spd_132.txt.gz
Wind_Speed
10 13 10 8 2 2 5 5 5 4 3 5 7 7 4 14 5 4 12 11 11 9 10 10 9 10 9 6 5 4 4 4 3 7 9 10 10 14 11 12 12 12 12 13 14 14 14 16 15
8 10 6 5 2 5 5 7 11 10 7 5 3 5 2 5 6 8 12 15 15 8 11 10 10 10 8 6 6 6 6 5 5 9 9 10 11 13 10 11 12 11 13 14 13 13 13 14 14
9 8 5 2 3 3 3 8 8 8 4 4 1 2 4 5 5 7 6 19 14 9 9 11 10 9 7 6 7 5 6 6 5 8 10 10 12 14 9 13 10 11 11 12 11 12 11 12 13
13 4 5 2 8 4 3 6 8 8 4 0 5 2 5 3 3 6 10 17 15 11 9 10 10 8 7 7 7 5 4 4 5 5 10 8 11 14 10 11 9 10 10 10 10 10 11 11 11
8 7 4 5 7 6 4 6 5 4 2 8 2 1 4 3 5 7 15 16 14 12 10 9 11 10 8 7 5 5 3 3 4 3 5 7 9 13 11 10 12 10 7 9 9 8 9 9 9
5 2 4 5 7 3 6 13 8 8 8 8 1 7 5 3 7 9 17 15 13 13 11 11 11 10 9 8 7 6 5 3 3 3 2 2 4 9 11 10 10 11 9 7 6 6 6 7 8
5 4 6 11 7 8 4 6 5 9 10 5 3 4 5 4 12 9 14 16 13 13 12 9 12 12 12 11 10 8 8 6 3 1 2 3 2 3 7 8 8 9 8 7 4 4 4 5 6
6 4 6 8 5 6 5 3 1 4 4 4 5 3 5 7 10 11 12 15 15 14 12 9 10 12 13 13 12 11 12 9 6 3 2 3 4 4 5 6 8 8 7 6 4 2 2 3 3
5 3 4 8 9 6 7 5 4 3 6 2 2 1 4 10 7 12 14 14 14 14 15 12 9 9 10 12 14 13 14 12 11 7 5 6 6 7 7 7 7 7 6 6 6 3 1 1 1
4 4 8 10 5 6 15 6 15 3 4 8 7 9 7 10 8 12 15 17 17 17 15 15 16 13 10 9 11 16 17 17 16 11 9 7 7 9 9 8 8 9 9 9 7 5 3 1 1
4 8 12 16 6 5 8 10 10 10 5 8 2 10 12 11 10 13 14 17 20 16 15 17 17 16 16 17 15 16 19 17 16 12 11 10 11 11 11 9 10 12 13 12 9 6 4 4 0
12 15 15 17 6 3 9 12 7 13 16 12 10 1 12 13 13 14 15 16 18 17 17 18 17 17 17 17 15 13 16 16 16 15 14 12 16 14 15 13 13 14 13 11 10 9 8 6 7
15 11 21 17 9 6 13 15 13 16 16 17 13 14 10 15 13 13 14 15 17 20 19 18 20 18 18 19 16 16 17 21 20 19 18 18 17 17 15 16 14 15 14 13 12 11 10 10 9
9 9 16 19 9 10 12 15 16 14 12 11 13 13 12 15 14 14 15 19 19 19 23 20 19 22 20 20 20 21 20 19 19 19 19 19 19 19 18 19 18 18 16 15 15 13 13 12 10
6 8 11 12 11 10 11 9 10 25 23 21 16 14 14 14 15 18 17 19 20 18 18 23 23 21 25 22 22 22 23 24 23 21 22 22 21 21 20 21 22 21 19 18 16 15 16 14 12
4 8 10 9 17 14 7 12 14 22 26 22 23 26 19 19 18 17 19 21 21 19 17 21 25 25 22 27 26 24 24 25 25 25 25 24 23 23 24 23 23 22 22 21 21 20 19 17 16
8 7 12 12 20 5 9 6 11 12 7 19 19 21 22 24 20 17 18 22 22 20 20 20 22 25 24 25 28 27 27 27 27 27 27 26 27 25 25 25 24 24 24 24 22 22 20 18 17
9 13 12 14 2 3 9 12 10 22 16 13 17 19 20 22 18 17 19 21 23 25 22 25 24 23 24 24 26 31 30 29 27 29 30 29 29 27 27 28 27 27 27 26 25 23 21 21 18
14 14 11 9 3 2 6 11 10 22 23 20 19 23 24 24 21 20 21 23 26 25 28 28 28 24 25 29 29 33 36 34 32 31 30 30 31 31 28 29 30 29 30 29 26 24 24 25 23
17 17 18 10 7 2 7 14 13 20 22 24 25 27 28 27 28 29 27 27 29 30 29 30 31 28 31 31 30 32 35 36 35 35 33 32 33 33 31 31 31 32 33 32 30 28 28 27 26
18 17 14 13 7 2 5 15 13 15 32 38 38 36 31 30 30 29 24 25 30 31 32 30 34 33 34 34 33 33 32 34 37 39 39 38 36 35 35 35 33 33 34 34 33 31 31 31 28
17 10 9 10 3 6 3 10 8 8 14 14 12 17 25 28 24 24 26 26 23 23 28 29 28 31 36 36 36 38 39 39 40 39 36 38 38 38 38 38 38 37 35 36 35 33 34 33 33
16 5 8 12 10 4 12 5 8 3 10 10 17 18 18 17 13 3 3 7 9 16 19 18 24 29 29 32 37 41 44 45 42 41 41 38 38 37 36 38 40 40 40 39 38 38 36 36 36
2 7 7 5 4 8 23 8 21 12 12 12 13 8 2 9 5 3 3 5 4 7 13 15 21 28 32 32 34 39 46 47 46 44 43 43 41 40 38 38 39 40 41 41 41 40 39 38 37
7 8 4 6 6 11 10 10 18 10 9 4 6 8 3 8 6 6 4 9 10 10 9 9 15 22 24 29 33 36 42 46 47 46 44 44 44 43 42 40 40 40 40 40 40 42 43 42 42
12 13 5 5 5 6 7 9 8 2 5 7 2 2 5 7 9 6 12 14 12 13 15 15 13 13 20 24 28 34 35 42 47 47 45 44 42 43 41 41 41 40 38 38 40 43 44 43 44
2 10 5 1 1 2 5 6 5 8 6 3 1 7 15 14 7 8 12 16 14 21 20 22 19 17 15 19 25 29 34 36 39 42 43 41 42 40 39 40 41 41 40 38 37 39 42 43 43
6 9 4 2 5 3 4 5 4 6 9 8 11 16 9 6 8 12 16 20 21 23 24 25 24 21 20 18 20 26 30 34 36 37 39 40 41 39 39 38 40 42 41 39 38 38 38 41 43
6 4 7 6 3 1 1 4 4 7 15 10 10 8 11 11 11 14 15 18 19 22 24 24 26 25 23 22 19 21 26 30 33 35 37 37 36 38 37 37 39 40 40 40 40 40 39 41 42
5 4 8 3 4 2 3 5 6 10 10 15 10 11 11 13 12 12 17 19 21 29 30 30 28 28 27 24 23 21 22 25 29 32 35 34 34 33 34 37 38 39 38 38 38 39 37 41 42

GFSSGP_850_spd_138.txt.gz
Wind_Speed
19 15 12 5 4 5 2 2 2 2 1 0 3 3 6 4 2 2 7 10 6 10 13 13 10 10 11 8 5 3 1 2 3 8 13 15 11 10 8 9 14 13 13 12 13 13 16 15 16
20 14 6 3 5 4 4 2 3 3 4 2 3 10 2 2 2 5 13 11 10 9 12 12 10 11 9 7 5 3 1 1 2 10 15 14 11 12 11 8 12 13 12 11 13 13 13 13 14
16 10 5 4 3 3 3 4 5 5 5 3 2 4 3 5 4 9 8 13 11 11 12 12 11 11 9 7 5 3 2 2 1 9 12 14 11 9 12 10 10 13 11 10 12 13 12 11 12
14 5 3 4 1 1 4 1 4 5 2 2 4 3 4 2 2 12 10 13 11 11 12 11 12 11 9 8 7 4 2 2 2 5 12 13 12 8 12 9 8 13 10 11 11 11 10 9 11
9 4 4 3 4 5 2 5 5 2 3 4 6 5 3 3 3 8 14 15 12 13 10 11 11 11 10 9 8 5 3 2 2 3 7 14 11 7 11 11 10 8 10 11 10 9 9 8 9
6 3 4 2 5 6 3 3 3 4 2 3 1 5 2 4 3 12 16 14 11 10 9 10 11 11 11 11 9 6 5 3 3 4 4 8 12 10 11 9 8 5 9 9 8 8 8 8 8
4 3 2 1 3 4 4 8 4 3 5 2 1 3 3 8 5 16 18 14 12 12 10 10 11 11 12 12 11 9 7 5 4 3 4 5 9 11 10 12 11 7 9 9 8 7 7 7 7
3 4 3 2 1 1 5 3 4 8 3 4 2 3 4 11 10 18 17 16 13 11 11 12 12 13 13 13 13 12 10 9 7 5 5 6 7 8 8 10 12 12 11 10 7 6 6 6 7
1 3 2 3 4 4 6 3 6 3 4 4 2 4 5 5 12 17 21 19 17 17 15 15 15 14 15 15 14 14 13 12 11 10 8 8 8 9 10 9 10 9 10 9 9 8 6 5 6
3 3 6 2 3 1 3 6 9 4 7 3 4 7 5 6 12 15 25 24 21 20 18 16 14 14 15 15 16 16 16 16 15 14 11 10 10 11 11 12 11 11 12 11 10 9 8 7 7
2 5 3 2 2 5 2 4 5 3 3 2 4 7 7 10 13 15 19 23 23 20 19 20 17 17 17 15 15 17 18 18 19 17 15 13 13 14 15 15 15 14 13 12 12 11 10 9 9
2 7 6 8 2 2 5 6 5 7 8 10 7 12 12 13 15 16 19 19 21 24 24 21 20 20 19 18 17 17 17 18 21 21 19 19 17 17 16 15 16 15 15 14 15 14 13 13 12
4 6 16 18 13 9 10 9 8 13 18 19 21 18 17 17 18 18 16 17 20 24 26 26 20 23 22 22 21 20 19 20 21 23 21 20 20 19 17 17 17 17 17 17 17 17 16 16 14
4 8 7 6 10 8 6 9 4 12 22 22 22 21 20 24 19 19 20 19 22 22 25 27 27 23 23 25 25 24 22 21 21 23 23 23 21 20 20 19 19 20 20 19 19 19 19 18 17
6 5 6 5 9 3 8 6 7 19 21 22 22 22 25 23 21 20 20 20 18 18 19 27 30 28 26 24 26 26 25 24 25 25 23 24 23 22 21 22 22 22 21 21 21 21 21 21 19
4 2 3 4 4 8 6 15 8 18 19 24 15 18 24 28 26 25 27 26 21 18 18 19 28 31 30 27 26 26 26 27 28 28 26 26 26 25 25 24 25 23 23 24 24 23 23 23 22
4 4 4 5 7 4 7 6 13 22 21 17 19 20 19 19 21 22 19 30 30 25 21 20 21 26 32 31 29 28 27 28 30 30 30 30 30 29 29 29 27 24 26 26 26 26 26 26 25
8 7 4 4 2 3 7 13 13 15 14 18 23 20 20 21 24 26 23 20 28 30 26 24 22 22 28 34 34 32 31 32 32 33 34 33 33 32 31 32 31 28 29 30 29 30 28 29 28
3 4 6 2 6 3 9 14 12 21 18 18 24 28 29 30 29 25 26 23 18 27 30 28 26 22 24 32 38 36 36 36 37 36 36 36 35 35 34 35 34 33 34 33 32 32 31 31 30
7 11 8 7 8 4 8 13 10 9 15 24 28 33 38 37 38 37 34 30 27 25 28 31 31 27 26 28 33 37 35 36 36 37 38 39 37 37 36 35 35 35 36 37 36 35 35 35 31
9 12 4 11 5 7 5 17 11 12 19 28 31 32 36 39 34 28 28 28 31 27 27 30 33 33 33 30 30 34 37 36 37 36 37 41 41 41 41 39 37 34 34 38 38 39 39 39 37
14 7 6 6 1 6 3 12 13 10 14 11 26 27 28 26 23 29 18 17 21 23 25 22 26 34 35 32 33 34 37 41 41 40 38 39 42 42 44 44 43 42 39 37 39 39 41 41 43
6 6 8 8 5 4 16 6 13 5 9 6 11 23 24 34 21 7 7 6 3 1 2 5 10 14 20 28 32 35 39 41 43 44 43 40 41 43 40 42 43 46 46 43 40 41 41 42 44
3 2 1 2 2 9 11 7 12 12 10 5 20 25 20 9 19 15 10 7 7 6 2 2 6 9 13 19 23 27 32 36 40 43 44 44 42 43 43 41 40 42 45 47 45 44 44 44 45
4 3 3 5 6 9 6 8 18 7 7 9 10 10 18 18 16 14 11 11 9 7 6 4 2 4 6 8 12 20 26 30 33 36 42 45 46 43 44 43 41 39 41 43 44 47 47 47 47
10 11 6 6 6 4 1 8 10 9 20 15 20 16 18 18 17 18 15 12 8 7 8 8 9 8 9 10 10 11 15 23 30 33 36 38 41 43 42 43 44 41 38 38 40 44 45 47 48
4 12 8 6 3 4 4 7 8 9 2 7 16 23 20 16 17 18 14 11 11 12 13 14 14 13 13 14 15 16 15 15 20 25 32 35 35 36 38 40 42 41 39 37 37 40 43 43 46
6 7 3 6 4 5 3 4 6 6 6 5 8 18 16 23 21 16 14 12 12 12 13 14 16 18 19 18 18 19 20 20 20 21 24 28 32 33 34 35 38 39 39 38 38 40 41 41 43
5 7 3 3 4 6 2 5 6 5 5 8 8 18 23 19 17 15 13 13 14 14 16 17 17 19 22 23 24 23 22 22 23 23 22 23 26 30 31 32 33 36 38 39 40 41 41 43 42
9 13 15 7 8 2 1 5 7 2 4 5 15 21 21 17 15 14 13 13 14 16 18 20 22 22 23 26 27 27 26 25 25 25 24 22 24 24 28 30 32 34 35 36 38 40 40 42 44

GFSSGP_850_spd_141.txt.gz
Wind_Speed
21 18 9 4 4 5 2 2 3 0 1 2 3 0 4 3 1 3 7 11 7 10 12 12 9 9 9 7 3 2 2 2 2 5 12 9 4 4 8 9 9 10 10 11 10 12 11 13 12
21 16 5 3 5 4 4 3 3 2 3 5 5 4 3 0 1 1 10 10 6 8 11 11 10 10 10 6 4 2 2 3 3 6 15 10 10 6 6 9 10 9 9 9 9 10 10 11 10
15 12 4 4 3 3 4 3 3 0 3 1 3 2 1 0 1 2 4 10 10 10 12 12 10 11 9 6 5 3 2 1 1 6 14 9 7 8 5 6 9 8 8 8 8 8 8 10 10
13 5 5 5 2 1 2 3 2 1 2 2 3 2 1 1 2 3 5 8 9 11 12 12 11 11 9 7 6 4 2 1 1 4 10 10 8 8 7 4 8 7 8 8 8 6 7 8 9
7 4 4 4 4 4 4 3 4 1 3 1 0 1 0 1 3 5 6 8 9 11 13 12 11 11 10 9 7 5 3 2 1 4 7 11 9 7 8 6 8 10 7 8 7 6 5 6 8
4 3 5 1 5 6 3 8 1 2 3 1 2 2 2 3 3 4 6 8 8 9 11 12 12 11 10 10 9 7 4 3 3 3 5 11 10 9 12 10 9 6 8 8 7 6 5 5 7
4 4 4 2 2 4 3 6 3 2 2 3 1 1 2 5 3 4 7 9 8 9 10 10 12 12 12 12 11 9 6 5 5 5 6 7 9 11 11 10 9 9 10 9 7 5 5 5 6
4 4 2 1 1 1 6 3 3 4 2 3 2 1 2 3 5 8 11 12 11 10 11 12 12 14 14 14 13 12 9 8 7 6 6 8 10 10 11 13 12 9 9 9 9 8 7 6 6
3 4 1 2 2 4 4 5 5 4 5 3 3 4 6 3 9 11 15 16 17 16 14 14 15 16 16 15 15 14 12 10 10 10 8 9 11 12 12 13 14 12 13 11 11 9 8 8 8
2 3 7 3 1 1 6 4 7 6 8 3 4 6 6 5 10 13 16 18 19 20 18 16 15 17 18 18 17 17 15 14 13 13 12 11 11 12 12 13 13 15 13 13 12 11 10 10 10
3 4 4 2 2 1 3 7 5 3 3 2 8 10 11 8 10 14 16 19 20 19 19 20 16 16 18 19 19 19 19 18 16 17 16 14 14 14 15 16 16 16 15 15 14 14 13 12 12
1 5 4 1 1 2 4 4 3 9 11 11 15 15 16 15 15 16 17 19 22 22 22 22 21 18 19 20 21 19 20 19 20 19 19 19 18 17 17 17 18 18 17 16 16 16 15 16 15
3 4 8 11 11 13 12 10 7 16 18 14 17 18 18 17 20 21 20 19 21 27 26 25 25 24 20 22 23 23 22 21 19 19 21 22 21 21 19 19 19 19 19 18 19 18 18 19 19
2 5 9 8 12 9 5 5 5 12 17 22 21 20 21 23 22 22 24 22 23 23 25 27 28 28 25 22 22 25 25 24 23 22 23 24 24 22 20 21 21 21 20 20 20 21 21 21 21
4 3 6 6 12 4 6 4 7 18 19 21 18 18 18 21 22 22 21 23 23 24 23 25 29 29 29 26 23 22 26 27 26 25 24 25 26 25 23 22 23 23 22 21 22 23 23 25 24
1 3 1 4 5 10 5 11 11 22 23 28 29 23 18 19 19 24 23 24 25 28 27 24 26 31 32 30 26 24 24 25 28 28 27 27 27 26 27 27 26 24 24 24 24 25 26 26 27
3 4 3 6 4 4 6 3 5 14 15 19 24 21 22 22 21 15 18 21 26 26 28 28 24 27 29 32 32 29 28 26 27 28 29 29 29 29 30 31 31 29 28 27 27 28 28 29 29
10 5 3 4 4 1 8 14 8 20 20 17 19 21 24 29 26 22 23 26 27 25 25 26 29 26 26 27 30 34 34 32 28 29 31 31 30 31 32 34 34 33 32 32 31 31 31 31 30
3 3 2 2 5 4 9 15 12 21 18 19 22 24 26 32 36 35 33 30 30 28 26 26 28 28 27 28 30 33 36 36 34 32 30 32 31 33 34 36 37 35 36 35 35 33 34 34 32
9 12 16 4 8 5 7 20 10 13 16 24 29 32 34 37 38 33 32 35 31 33 30 26 24 26 30 31 32 33 34 36 33 33 32 30 29 33 34 37 38 37 36 36 36 37 37 37 36
5 6 4 9 5 6 6 21 11 7 16 29 29 34 33 33 37 35 31 28 28 22 26 26 24 25 32 34 34 34 33 34 31 30 33 31 33 36 37 39 40 41 39 38 37 35 38 40 39
14 7 6 4 2 9 3 11 14 10 17 14 24 30 35 33 34 29 22 18 9 9 12 18 22 23 25 27 30 31 32 34 31 33 31 33 35 31 33 41 36 42 45 42 41 39 38 38 42
7 6 8 6 5 5 5 5 9 1 9 14 16 28 30 29 24 18 5 7 5 3 3 3 1 5 10 16 20 22 25 28 30 33 33 34 36 33 28 33 42 38 39 42 44 45 45 42 42
3 2 3 3 3 8 6 7 11 4 6 3 7 19 19 14 7 16 14 12 11 9 7 5 2 0 2 5 8 11 15 21 26 29 32 35 37 36 35 33 33 36 35 35 39 42 46 47 47
4 4 2 3 5 8 3 7 15 12 5 9 15 18 6 14 16 16 14 13 12 9 8 6 5 5 5 5 6 8 10 14 19 22 24 27 31 34 36 36 37 37 35 35 35 37 40 43 47
10 9 5 4 4 4 2 6 6 8 15 17 18 11 15 18 20 19 18 17 16 15 13 12 11 10 10 10 9 11 12 14 15 17 19 23 28 31 30 34 37 36 33 34 33 35 38 39 40
5 12 13 2 1 5 5 7 9 8 7 7 3 15 21 21 19 18 17 17 17 16 16 15 14 14 15 16 15 15 15 16 18 19 19 21 23 24 27 28 32 36 36 34 35 37 38 39 39
6 7 4 6 6 7 2 6 9 5 6 3 10 20 24 21 20 18 17 15 15 14 14 14 15 17 17 18 19 20 20 19 20 21 23 24 25 24 25 26 29 32 34 34 35 38 38 39 41
5 6 3 2 3 2 3 6 6 4 5 9 15 19 21 19 18 17 16 15 14 14 14 15 16 18 19 20 21 22 22 22 22 23 23 26 27 28 27 27 27 29 31 32 34 36 37 39 40
16 12 16 6 5 4 2 12 2 3 7 27 22 21 19 16 15 14 14 14 14 15 16 17 18 20 21 23 24 25 27 28 28 27 28 27 28 28 29 28 28 27 28 30 32 34 36 38 39

GFSSGP_850_spd_147.txt.gz
Wind_Speed
17 15 4 2 4 5 1 1 1 2 2 2 1 2 4 3 1 1 3 6 4 7 8 7 6 6 5 6 1 3 3 2 2 6 5 7 8 12 9 6 7 9 7 8 10 11 10 9 10
18 14 3 4 4 3 1 2 1 2 2 3 3 3 3 2 2 2 2 4 3 7 7 7 6 5 5 5 3 3 3 3 0 8 5 4 5 9 6 9 6 6 9 9 9 8 8 9 11
16 11 4 4 3 3 2 1 1 2 2 3 2 4 2 2 4 4 1 4 2 7 7 6 5 5 5 5 4 3 4 3 0 11 9 6 5 5 7 7 6 6 8 6 6 7 7 10 10
15 5 6 4 3 0 1 2 1 3 2 4 3 3 3 4 4 5 2 2 2 5 6 6 5 5 5 4 5 4 4 3 1 11 10 8 7 6 5 8 5 8 5 6 5 6 7 8 9
9 5 4 4 2 2 1 1 3 3 4 5 5 1 3 5 5 5 2 0 1 3 5 6 5 5 5 5 4 4 5 4 2 9 7 6 5 5 5 3 7 6 6 5 4 5 6 7 8
4 3 4 2 0 2 2 5 2 4 5 4 3 4 2 8 6 6 2 1 0 1 3 5 6 6 7 6 5 4 4 5 2 4 10 8 7 9 7 6 10 8 5 4 5 4 5 6 7
5 3 3 2 1 2 3 4 4 3 3 4 4 4 3 10 7 6 2 1 2 3 4 5 7 8 8 8 7 6 5 4 3 3 7 9 8 8 10 8 8 10 9 8 7 6 5 6 6
3 5 3 1 2 2 5 2 2 5 2 2 3 2 3 12 8 6 6 4 5 5 5 7 8 9 10 10 10 9 8 7 5 4 5 8 9 11 10 12 8 8 9 10 9 8 7 7 8
3 4 1 3 4 2 4 3 4 2 3 1 3 6 8 10 9 7 7 9 9 9 9 9 9 10 11 11 12 12 11 10 9 8 7 8 10 11 10 10 11 11 10 9 10 11 11 10 10
4 3 7 2 3 2 2 4 3 2 8 1 2 7 9 12 13 11 10 10 12 13 11 12 12 12 12 12 13 14 15 14 13 12 10 10 10 11 13 13 13 15 15 13 11 12 13 13 12
3 5 3 2 2 0 1 3 2 1 3 2 7 12 14 14 15 15 15 14 13 14 15 15 15 16 15 14 13 15 16 18 17 15 14 13 13 13 13 14 15 16 17 18 19 15 14 15 15
4 2 4 1 1 4 3 2 6 9 10 12 12 15 15 18 17 17 17 17 17 18 17 16 17 18 19 18 17 17 16 18 19 18 17 16 15 16 15 16 15 16 18 20 20 19 17 17 17
3 0 1 4 9 8 7 6 10 10 17 16 14 14 19 21 17 16 18 20 19 19 16 15 17 19 19 21 22 21 19 18 19 20 20 19 17 16 17 18 18 18 18 20 21 22 21 21 20
3 1 5 7 7 9 4 5 5 1 13 14 15 15 18 18 18 21 16 17 18 17 15 14 16 18 20 22 23 24 23 19 19 20 20 21 20 18 18 18 20 19 18 18 20 21 23 23 24
2 2 5 7 3 5 3 4 8 17 12 13 14 14 17 17 19 18 13 16 17 16 15 16 15 17 21 22 23 24 24 23 23 20 19 20 22 22 21 22 20 19 18 19 19 20 23 26 26
3 3 1 4 1 1 7 5 11 7 8 17 19 24 22 19 18 18 17 17 16 14 14 15 18 19 19 22 22 23 24 24 24 23 23 20 20 20 22 24 25 21 19 20 24 24 25 26 27
1 2 2 7 2 2 4 3 4 11 25 24 26 27 27 26 21 19 18 21 20 22 23 22 21 21 20 19 22 23 23 23 24 25 25 25 25 22 23 23 25 24 23 23 24 27 29 30 31
5 5 3 4 4 3 6 7 13 21 23 29 31 31 31 31 26 22 21 24 26 28 25 24 26 26 23 20 20 24 23 24 24 25 25 25 26 26 25 26 24 24 25 25 24 29 33 33 33
5 3 5 2 5 3 7 10 9 23 24 24 31 35 35 35 31 27 28 29 28 26 26 27 26 25 24 23 19 21 24 23 24 23 22 21 23 26 28 27 28 29 27 28 23 29 31 33 33
5 6 4 3 1 2 7 16 17 26 26 26 31 33 31 29 27 27 27 26 28 24 22 21 18 19 21 21 16 16 19 22 23 24 23 22 22 20 22 22 23 27 27 32 34 41 33 28 25
3 4 2 6 4 4 6 9 3 3 9 17 20 22 25 26 24 19 17 13 11 11 11 10 7 10 12 14 13 13 15 18 19 20 20 20 22 21 21 21 22 24 30 31 35 44 40 32 34
6 6 3 3 2 7 3 7 5 5 7 7 20 15 8 10 7 5 2 1 2 4 3 2 1 2 5 7 9 11 10 11 12 15 16 17 18 19 20 21 23 24 25 28 31 35 41 38 34
3 5 6 4 3 2 4 4 4 4 5 9 6 6 7 7 3 5 7 8 8 8 7 7 7 5 5 4 2 3 4 7 10 13 15 16 17 18 20 19 21 23 24 25 27 29 31 33 35
8 5 3 2 2 8 10 7 4 5 7 3 4 2 4 7 9 12 13 12 10 9 8 8 7 8 7 6 5 3 3 4 5 7 9 11 12 13 13 15 18 21 23 26 28 27 30 31 32
5 6 1 3 4 6 2 9 14 6 9 6 6 7 10 12 14 15 15 13 12 11 11 11 9 9 9 8 7 6 6 6 8 10 12 13 13 14 14 16 17 18 20 23 25 27 32 32 33
9 9 4 6 4 3 3 7 6 8 5 6 9 15 17 16 15 15 15 15 14 13 12 11 11 12 10 10 9 9 8 8 9 10 12 14 16 17 18 18 18 19 20 21 23 25 28 31 33
5 9 4 2 2 0 5 7 7 6 4 8 16 17 16 15 15 15 14 14 13 12 12 10 10 10 9 9 9 9 9 9 10 11 13 15 17 18 19 20 22 22 21 21 22 24 25 28 31
6 8 4 4 5 5 4 6 9 4 5 6 10 18 17 16 15 15 14 12 12 11 11 9 9 8 8 7 7 6 7 9 11 13 14 15 17 19 20 21 21 22 22 23 23 24 25 25 25
4 6 4 3 5 4 3 7 6 10 7 11 14 23 22 19 16 14 13 12 10 8 8 9 8 8 8 9 12 14 15 16 16 17 18 19 21 22 24 24 24 24 24 24 23 24 26 27 28
11 9 11 6 6 6 2 14 1 6 5 17 22 25 22 19 16 13 11 9 8 7 6 6 8 10 11 12 13 14 16 18 20 20 21 23 23 24 25 27 28 28 29 28 28 28 27 29 31